Terug naar catalogus

CZ-4 DEB

ActiefSSO
NORAD 20972·DEBRIS·🇨🇳 China

Gelanceerd Sep 3, 1990 vanaf Taiyuan Satellite Launch Center

Loading…

Volgende Passages (komende 24 uur)

TLE

VersSource: Space-Track

Epoch: Sep 14, 2026, 11:49 UTC

1 20972U 90081CE  26257.49287306  .00001448  00000-0  43518-3 0  9990
2 20972  98.4808 261.7843 0018157 118.6437  41.2852 14.44051453867624

Volg CZ-4 DEB in realtime met AllMySat

Download on the App Store